This is the latest recevied weather packets stored in our database for station/object KB3HHA-13. If no packets are shown the sender has not sent any weather packets the latest 10 day(s).
| Time | Temp. | Humidity | Pressure | Rain* | Wind** | Luminosity | Snow |
|---|---|---|---|---|---|---|---|
| 1777899720 | 12.78° C | 62% | 1014.5 hPa | 0 mm | - | - | - |
| 1777899422 | 12.22° C | 61% | 1014.6 hPa | 0 mm | - | - | - |
| 1777899120 | 12.22° C | 62% | 1014.6 hPa | 0 mm | - | - | - |
| 1777898823 | 11.67° C | 63% | 1014.6 hPa | 0 mm | - | - | - |
| 1777898521 | 11.67° C | 64% | 1014.5 hPa | 0 mm | - | - | - |
| 1777898220 | 11.11° C | 67% | 1014.5 hPa | 0 mm | - | - | - |
| 1777897923 | 11.11° C | 67% | 1014.5 hPa | 0 mm | - | - | - |
| 1777897621 | 11.11° C | 67% | 1014.6 hPa | 0 mm | - | - | - |
| 1777897322 | 10.56° C | 69% | 1014.7 hPa | 0 mm | - | - | - |
| 1777897021 | 10° C | 71% | 1014.7 hPa | 0 mm | - | - | - |
| 1777896720 | 10° C | 73% | 1014.8 hPa | 0 mm | - | - | - |
| 1777896421 | 9.44° C | 74% | 1014.8 hPa | 0 mm | - | - | - |
| 1777896120 | 8.89° C | 76% | 1014.8 hPa | 0 mm | - | - | - |
| 1777895820 | 8.33° C | 80% | 1014.7 hPa | 0 mm | - | - | - |
| 1777895523 | 7.78° C | 85% | 1014.8 hPa | 0 mm | - | - | - |
| 1777895220 | 7.78° C | 88% | 1014.8 hPa | 0 mm | - | - | - |
| 1777894921 | 7.22° C | 90% | 1014.9 hPa | 0 mm | - | - | - |
| 1777894620 | 7.22° C | 91% | 1014.9 hPa | 0 mm | - | - | - |
| 1777894322 | 7.22° C | 92% | 1015 hPa | 0 mm | - | - | - |
| 1777894022 | 6.67° C | 92% | 1015 hPa | 0 mm | - | - | - |
| 1777893722 | 6.67° C | 92% | 1015 hPa | 0 mm | - | - | - |
| 1777893421 | 6.11° C | 92% | 1015 hPa | 0 mm | - | - | - |
| 1777893121 | 6.11° C | 92% | 1015 hPa | 0 mm | - | - | - |
| 1777892822 | 6.11° C | 92% | 1015 hPa | 0 mm | - | - | - |
| 1777892522 | 5.56° C | 92% | 1015 hPa | 0 mm | - | - | - |
* Rain latest hour (hover to see other rain measurements)
** Current wind speed in m/s (hover to see current wind gust speed)